date:2026-07-27T18:45:38+00:00
validtle:1
satid:43758
launchyear:2018
epoch:26208.22751416
epochday:208
tleage:0
tleclassification:U
active:1
name:MINXSS-2
meananomly:237.1287
meanmotion:15.4965
rightascension:0.0000
declination:0.0000
semimajoraxis:6795.8912499578
altitudeatperigee:412
altitudeatapogee:424
inclination:97.4515
eccentricity:0.0008651
argumentofperigree:123.0796
nickname:MINXSS-2
idesg:18099A  
cosparid:2018-099A
altkm:424.07857345202
velkms:7.6550681697424
velkmh:27558
onumepoch:42032
onumnow:651357.03
otype:1
otypedesc:Low Earth Orbit (LEO)
status:1
timestamp:2026-07-27T05:27:37+00:00
nowjuliandate:2461249.2816901
nowepochdate:26208.7816898148
TLE:
MINXSS-2
1 43758U 18099A   26208.22751416  .00041841  00000+0  75364-3 0  9995
2 43758  97.4515 285.7601 0008651 123.0796 237.1287 15.49648947420325